ONEWEB-0699, 61605

Orbit data source: Space-Track

ONEWEB-0699, 61605 is a payload satellite owned by Eut. One Web (UK) in LEO that was launched on Sun, 20 Oct 2024 UTC via an FALCON 9 launch vehicle from the Air Force Western Test Range (AFWTR). Payload-class satellites include a variety of spacecraft equipped with specific instruments for various scientific and technological missions. These include communications satellites like Starlink; space stations such as the ISS; scientific satellites like the Hubble; Earth observation satellites from companies like Planet Labs, Umbra, and HawkEye 360; GPS; miniature CubeSats for education and research; and military/defense satellites.

Loading next visibility...
Identifier
61605, 2024-188M
Orbit
LEO
Country
Flag of UKUK
Related business
Manufacturer
One Web
Mission
Operational Commercial Communications
Bus & Motor
ARROW, Unknown motor
Mass
148 kg wet, ~140 kg dry
Launch date (UTC)
2024-10-20 (11 months ago)
Launch vehicle
FALCON 9
Launch site
Air Force Western Test Range (AFWTR)
Object type
Payload
Rocket body
Debris
Shape & HBR
Trap Box + 2 Pan, 2.5 m
Radar Cross Section
2.032 m², Large (>1 m²)

Expand to show TLE details & history
Last TLE update: 12 hours ago

TLE from 12 hours ago
0 ONEWEB-0699
1 61605U 24188M   25260.92470216 -.00002204  00000-0 -63525-2 0  9990
2 61605  87.8751  90.5467 0001674 108.8047 251.3262 13.10348414 47655
Epoch: 2025-09-17T22:11Z
TLE epoch observation values (Epoch: 2025-09-17T22:11:34.266Z)
Latitude
-0.00003°
Longitude
120.56026°
Altitude
1,225.107 km
Speed
7.242 km/s
True Right ascension
06h 02m 11s
True Declination
0° 00' 00"
Sunlit
Object was in daylight at epoch
Visualization orbit readout
Latitude
Unknown
Longitude
Unknown
Altitude
Unknown
Speed
Unknown
Apparent Right ascension
Unknown
Apparent Declination
Unknown
Sunlit
N/A
Visualization observer readout
Local Sidereal Time
03:20:26
Azimuth
Unknown
Elevation
Unknown
Doppler factor
Unknown
Orbital elements
Apogee altitude
1,220.203 km
Perigee altitude
1,217.66 km
Semi-major axis
7,597.068 km
Eccentricity
0.00017
Inclination
87.8751°
RAAN
90.5467°
Arg. of periapsis
108.8047°
True anomaly
251.30803°
Mean anomaly
251.3262°
Eccentric anomaly
251.31711°
Mean motion
3.27774 °/min
Orbital period
109.83 mins
BSTAR
-0.0063525
Loading maneuver chart data...
Computing Atmospheric mass density...
Loading historical data...
Loading historical data...
Loading historical data...
Loading historical data...
Loading historical data...
Loading historical data...
Loading historical data...

Documentation

Showing up to 5 results
|